Weather History for Albert Lea, MN

Change the Weather History Date:

Monday, May 13, 2013

  Actual Average Record
Temperature  
Mean Temperature 58 °F -  
Max Temperature 77 °F 65 °F 86 °F (2007)
Min Temperature 39 °F 45 °F 24 °F (1997)
Degree Days  
Heating Degree Days 7    
Growing Degree Days 8 (Base 50)    
Moisture  
Dew Point 31 °F    
Average Humidity 40    
Maximum Humidity 87    
Minimum Humidity 20    
Precipitation  
Precipitation 0.00 in - - ()
Sea Level Pressure  
Sea Level Pressure 29.98 in    
Wind  
Wind Speed 6 mph (South)    
Max Wind Speed 23 mph    
Max Gust Speed 29 mph    
Visibility 10 miles    
Events Rain    
Averages and records for this station are not official NWS values.
T = Trace of Precipitation, MM = Missing Value Source: NWS Daily Summary

Daily Weather History Graph

Daily Weather History Graph

Search for Another Location

Airport:

Trip Planner

Search our weather history database for the weather conditions in past years. The results will help you decide how hot, cold, wet, or windy it might be!

Date:

Astronomy

May. 13, 2013 Rise Set
Actual Time 5:50 AM CDT 8:30 PM CDT
Civil Twilight 5:17 AM CDT 9:03 PM CDT
Nautical Twilight 4:35 AM CDT 9:44 PM CDT
Astronomical Twilight 3:48 AM CDT 10:32 PM CDT
Moon 8:36 AM CDT (5/13) 11:39 PM CDT (5/13)
Length of Visible Light 15h 45m
Length of Day
14h 39m
Waxing Crescent, 12% of the Moon is Illuminated
May 13
Waxing Crescent
May 17
First Quarter
May 24
Full
May 31
Last Quarter
Jun 8
New

Hourly Weather History & Observations

Time (CDT) Temp. Windchill Dew Point Humidity Pressure Visibility Wind Dir Wind Speed Gust Speed Precip Events Conditions
12:01 AM 42.8 °F - 28.4 °F 57% 30.12 in 10.0 mi Calm Calm - N/A   Clear
12:21 AM 41.0 °F - 26.6 °F 57% 30.11 in 10.0 mi Calm Calm - N/A   Clear
12:41 AM 41.0 °F - 30.2 °F 65% 30.11 in 10.0 mi Calm Calm - N/A   Clear
1:01 AM 41.0 °F - 30.2 °F 65% 30.12 in 10.0 mi Calm Calm - N/A   Clear
1:21 AM 39.2 °F - 30.2 °F 70% 30.11 in 10.0 mi SSW 1.2 mph - N/A   Clear
1:41 AM 39.2 °F - 30.2 °F 70% 30.11 in 10.0 mi Calm Calm - N/A   Clear
2:01 AM 39.2 °F 37.0 °F 32.0 °F 75% 30.11 in 10.0 mi SSW 3.5 mph - N/A   Clear
2:21 AM 39.2 °F - 35.6 °F 87% 30.10 in 10.0 mi SSW 2.3 mph - N/A   Clear
2:41 AM 39.2 °F - 35.6 °F 87% 30.10 in 10.0 mi SSW 1.2 mph - N/A   Clear
3:01 AM 41.0 °F - 35.6 °F 81% 30.10 in 10.0 mi South 1.2 mph - N/A   Clear
3:21 AM 41.0 °F - 33.8 °F 76% 30.09 in 10.0 mi East 1.2 mph - N/A   Clear
3:41 AM 39.2 °F - 33.8 °F 81% 30.09 in 10.0 mi Calm Calm - N/A   Clear
4:01 AM 39.2 °F 37.0 °F 35.6 °F 87% 30.09 in 10.0 mi SSW 3.5 mph - N/A   Clear
4:21 AM 42.8 °F 41.1 °F 35.6 °F 76% 30.09 in 10.0 mi South 3.5 mph - N/A   Clear
4:41 AM 42.8 °F - 33.8 °F 70% 30.09 in 10.0 mi South 2.3 mph - N/A   Clear
5:01 AM 44.6 °F 43.1 °F 28.4 °F 53% 30.09 in 10.0 mi South 3.5 mph - N/A   Clear
5:21 AM 44.6 °F 43.1 °F 26.6 °F 49% 30.09 in 10.0 mi South 3.5 mph - N/A   Clear
5:41 AM 46.4 °F 43.5 °F 23.0 °F 40% 30.09 in 10.0 mi South 5.8 mph - N/A   Clear
6:01 AM 46.4 °F 44.3 °F 21.2 °F 37% 30.09 in 10.0 mi South 4.6 mph - N/A   Clear
6:21 AM 44.6 °F 43.1 °F 21.2 °F 39% 30.09 in 10.0 mi South 3.5 mph - N/A   Clear
6:41 AM 44.6 °F - 24.8 °F 46% 30.09 in 10.0 mi South 2.3 mph - N/A   Clear
7:01 AM 46.4 °F 45.2 °F 26.6 °F 46% 30.09 in 10.0 mi SSE 3.5 mph - N/A   Clear
7:21 AM 48.2 °F - 24.8 °F 40% 30.09 in 10.0 mi South 3.5 mph - N/A   Clear
7:41 AM 50.0 °F - 21.2 °F 32% 30.10 in 10.0 mi South 8.1 mph - N/A   Clear
8:01 AM 51.8 °F - 21.2 °F 30% 30.10 in 10.0 mi South 5.8 mph - N/A   Clear
8:15 AM 53.6 °F - 21.2 °F 28% 30.10 in 10.0 mi South 6.9 mph - N/A   Clear
8:33 AM 53.6 °F - 23.0 °F 30% 30.09 in 10.0 mi South 9.2 mph - N/A   Clear
8:52 AM 55.4 °F - 23.0 °F 29% 30.09 in 10.0 mi South 9.2 mph - N/A   Clear
9:13 AM 57.2 °F - 21.2 °F 25% 30.08 in 10.0 mi South 6.9 mph - N/A   Clear
9:33 AM 59.0 °F - 21.2 °F 23% 30.08 in 10.0 mi South 6.9 mph - N/A   Clear
9:52 AM 59.0 °F - 19.4 °F 22% 30.08 in 10.0 mi SSW 5.8 mph - N/A   Clear
10:10 AM 59.0 °F - 19.4 °F 22% 30.07 in 10.0 mi SSW 6.9 mph - N/A   Clear
10:33 AM 59.0 °F - 21.2 °F 23% 30.06 in 10.0 mi South 10.4 mph - N/A   Scattered Clouds
10:52 AM 59.0 °F - 21.2 °F 23% 30.05 in 10.0 mi South 10.4 mph - N/A   Mostly Cloudy
11:13 AM 60.8 °F - 21.2 °F 22% 30.05 in 10.0 mi South 8.1 mph - N/A   Scattered Clouds
11:32 AM 60.8 °F - 21.2 °F 22% 30.03 in 10.0 mi South 8.1 mph 16.1 mph N/A   Scattered Clouds
11:53 AM 62.6 °F - 21.2 °F 20% 30.02 in 10.0 mi South 11.5 mph 19.6 mph N/A   Scattered Clouds
12:12 PM 60.8 °F - 24.8 °F 25% 30.02 in 10.0 mi South 11.5 mph 16.1 mph N/A Rain Light Rain
12:32 PM 62.6 °F - 26.6 °F 26% 30.01 in 10.0 mi South 10.4 mph - N/A   Scattered Clouds
12:53 PM 64.4 °F - 26.6 °F 24% 30.00 in 10.0 mi SSE 15.0 mph 18.4 mph N/A   Scattered Clouds
1:13 PM 62.6 °F - 28.4 °F 27% 29.98 in 10.0 mi South 12.7 mph 20.7 mph N/A   Clear
1:32 PM 62.6 °F - 33.8 °F 34% 29.97 in 10.0 mi SSE 13.8 mph 18.4 mph N/A Rain Light Rain
1:52 PM 64.4 °F - 33.8 °F 32% 29.95 in 10.0 mi SSE 15.0 mph 19.6 mph N/A   Clear
2:13 PM 64.4 °F - 33.8 °F 32% 29.95 in 10.0 mi South 15.0 mph 23.0 mph N/A   Scattered Clouds
2:33 PM 66.2 °F - 33.8 °F 30% 29.93 in 10.0 mi SSE 17.3 mph 23.0 mph N/A   Clear
3:33 PM 69.8 °F - 33.8 °F 27% 29.90 in 10.0 mi South 15.0 mph 26.5 mph N/A   Clear
3:53 PM 71.6 °F - 35.6 °F 27% 29.88 in 10.0 mi South 17.3 mph 24.2 mph N/A   Clear
4:13 PM 71.6 °F - 35.6 °F 27% 29.87 in 10.0 mi South 18.4 mph 26.5 mph N/A   Clear
4:33 PM 73.4 °F - 35.6 °F 25% 29.85 in 10.0 mi South 23.0 mph 28.8 mph N/A   Clear
4:52 PM 73.4 °F - 35.6 °F 25% 29.85 in 10.0 mi South 18.4 mph 25.3 mph N/A   Clear
5:13 PM 75.2 °F - 37.4 °F 25% 29.84 in 10.0 mi South 16.1 mph 24.2 mph N/A   Clear
5:32 PM 75.2 °F - 35.6 °F 24% 29.83 in 10.0 mi SSW 17.3 mph 26.5 mph N/A   Clear
5:53 PM 75.2 °F - 35.6 °F 24% 29.82 in 10.0 mi South 16.1 mph 28.8 mph N/A   Clear
6:30 PM 77.0 °F - 35.6 °F 22% 29.80 in 10.0 mi SSW 15.0 mph 20.7 mph N/A   Clear
7:00 PM 75.2 °F - 35.6 °F 24% 29.79 in 10.0 mi South 16.1 mph 23.0 mph N/A   Clear
7:32 PM 75.2 °F - 35.6 °F 24% 29.78 in 10.0 mi South 13.8 mph 20.7 mph N/A   Clear
7:53 PM 75.2 °F - 37.4 °F 25% 29.78 in 10.0 mi South 12.7 mph 19.6 mph N/A   Clear
8:12 PM 73.4 °F - 37.4 °F 27% 29.77 in 10.0 mi South 12.7 mph 18.4 mph N/A   Clear
8:33 PM 73.4 °F - 37.4 °F 27% 29.77 in 10.0 mi South 12.7 mph 18.4 mph N/A   Clear
8:52 PM 71.6 °F - 37.4 °F 29% 29.76 in 10.0 mi South 12.7 mph 20.7 mph N/A   Clear
9:12 PM 71.6 °F - 37.4 °F 29% - 10.0 mi South 11.5 mph - N/A   Clear
9:33 PM 69.8 °F - 39.2 °F 33% 29.77 in 10.0 mi South 9.2 mph 16.1 mph N/A   Clear
9:52 PM 69.8 °F - 41.0 °F 35% 29.76 in 10.0 mi South 13.8 mph 20.7 mph N/A   Clear
10:12 PM 69.8 °F - 41.0 °F 35% 29.76 in - South 13.8 mph 18.4 mph N/A   Clear
10:32 PM 69.8 °F - 42.8 °F 38% 29.75 in 10.0 mi South 12.7 mph 18.4 mph N/A   Clear
10:52 PM 68.0 °F - 42.8 °F 40% 29.75 in 10.0 mi North - - N/A   Clear
11:13 PM 68.0 °F - 42.8 °F 40% 29.74 in 10.0 mi South 11.5 mph 24.2 mph N/A   Clear
11:32 PM 66.2 °F - 42.8 °F 43% 29.74 in 10.0 mi South 10.4 mph - N/A   Clear
11:52 PM 66.2 °F - 42.8 °F 43% 29.74 in 10.0 mi SSW 10.4 mph 17.3 mph N/A   Clear